This is the latest recevied weather packets stored in our database for station/object F1AGU-13. If no packets are shown the sender has not sent any weather packets the latest 10 day(s).
| Time | Temp. | Humidity | Pressure | Rain* | Wind** | Luminosity | Snow |
|---|---|---|---|---|---|---|---|
| 1777889716 | 9.44° C | 89% | 1015.8 hPa | 2.29 mm | - | - | - |
| 1777889116 | 9.44° C | 89% | 1015.7 hPa | 2.03 mm | - | - | - |
| 1777888516 | 9.44° C | 87% | 1015.6 hPa | 1.52 mm | - | - | - |
| 1777887916 | 9.44° C | 85% | 1015.5 hPa | 1.27 mm | - | - | - |
| 1777887316 | 9.44° C | 87% | 1015.5 hPa | 1.02 mm | - | - | - |
| 1777886716 | 10° C | 91% | 1015.6 hPa | 0.51 mm | - | - | - |
| 1777886116 | 10° C | 90% | 1015.4 hPa | 0.25 mm | - | - | - |
| 1777885516 | 10° C | 88% | 1015.3 hPa | 0 mm | - | - | - |
| 1777884916 | 10° C | 89% | 1015.2 hPa | 0 mm | - | - | - |
| 1777884316 | 10° C | 89% | 1015.1 hPa | 0 mm | - | - | - |
| 1777883716 | 10.56° C | 89% | 1015.3 hPa | 0 mm | - | - | - |
| 1777883116 | 10.56° C | 88% | 1015.2 hPa | 0 mm | - | - | - |
| 1777882516 | 10° C | 88% | 1015.1 hPa | 0 mm | - | - | - |
| 1777881916 | 10° C | 89% | 1015.1 hPa | 0 mm | - | - | - |
| 1777881316 | 10° C | 90% | 1015 hPa | 0 mm | - | - | - |
| 1777880715 | 10° C | 90% | 1014.8 hPa | 0 mm | - | - | - |
| 1777880115 | 10° C | 91% | 1014.8 hPa | 0 mm | - | - | - |
| 1777879517 | 10.56° C | 90% | 1014.8 hPa | 0 mm | - | - | - |
| 1777878917 | 10° C | 87% | 1014.8 hPa | 0 mm | - | - | - |
| 1777878317 | 9.44° C | 90% | 1014.7 hPa | 0 mm | - | - | - |
| 1777877717 | 9.44° C | 92% | 1014.9 hPa | 0 mm | - | - | - |
| 1777877117 | 8.89° C | 92% | 1014.6 hPa | 0 mm | - | - | - |
| 1777876517 | 8.89° C | 92% | 1014.5 hPa | 0 mm | - | - | - |
| 1777875917 | 8.89° C | 93% | 1014.4 hPa | 0 mm | - | - | - |
| 1777875317 | 8.89° C | 93% | 1014.2 hPa | 0 mm | - | - | - |
* Rain latest hour (hover to see other rain measurements)
** Current wind speed in m/s (hover to see current wind gust speed)